When you browse on this site, cookies collect data to enhance your experience and personalize the content and advertising you see.
Visit our Privacy Policy to learn more. By continuing to use the site, you agree to this use of cookies and data.
  • En España
  • Lista de países
  • Para 7 días
  • Temperatura del agua
  • Mapa Satelital
  • El tiempo en el mapa
  • Informadores
  • user-avatar
    Iniciar sesión

    Tiempo cada hora Gevino

    Hoy, 19 Julio, Viernes

    Tiempo Temperatura Precipitaciones Viento Presión Humedad
    00:00 +13°C° 0.4 mm 4 mps 735 mmHg 97%
    01:00 +13°C° 0.4 mm 4 mps 735 mmHg 97%
    02:00 +13°C° 0.4 mm 5 mps 735 mmHg 97%
    03:00 +13°C° 0.4 mm 5 mps 735 mmHg 96%
    04:00 +13°C° 0.4 mm 5 mps 736 mmHg 96%
    05:00 +13°C° 0.4 mm 6 mps 736 mmHg 96%
    06:00 +14°C° 0.2 mm 6 mps 736 mmHg 95%
    07:00 +14°C° 0.2 mm 5 mps 737 mmHg 95%
    08:00 +14°C° 0.2 mm 5 mps 737 mmHg 94%
    09:00 +14°C° 0.2 mm 5 mps 737 mmHg 93%
    10:00 +15°C° 0.2 mm 6 mps 738 mmHg 92%
    11:00 +15°C° 0.2 mm 6 mps 738 mmHg 90%
    12:00 +15°C° 0.1 mm 6 mps 738 mmHg 89%
    13:00 +16°C° 0.1 mm 7 mps 739 mmHg 87%
    14:00 +16°C° 0.1 mm 7 mps 739 mmHg 85%
    15:00 +17°C° 0 mm 7 mps 739 mmHg 82%
    16:00 +17°C° 0 mm 7 mps 739 mmHg 79%
    17:00 +17°C° 0 mm 7 mps 740 mmHg 76%
    18:00 +16°C° 0 mm 6 mps 740 mmHg 78%
    19:00 +15°C° 0 mm 5 mps 740 mmHg 80%
    20:00 +14°C° 0 mm 4 mps 740 mmHg 83%
    21:00 +14°C° 0 mm 4 mps 740 mmHg 82%
    22:00 +14°C° 0 mm 4 mps 741 mmHg 81%
    23:00 +15°C° 0 mm 4 mps 741 mmHg 81%

    Mañana, 20 Julio, Sábado

    Tiempo Temperatura Precipitaciones Viento Presión Humedad
    00:00 +14°C° 0 mm 4 mps 741 mmHg 84%
    01:00 +13°C° 0 mm 4 mps 741 mmHg 86%
    02:00 +13°C° 0 mm 4 mps 741 mmHg 89%
    03:00 +12°C° 0 mm 4 mps 742 mmHg 90%
    04:00 +12°C° 0 mm 4 mps 742 mmHg 92%
    05:00 +12°C° 0 mm 3 mps 742 mmHg 93%
    06:00 +13°C° 0 mm 4 mps 742 mmHg 89%
    07:00 +15°C° 0 mm 4 mps 743 mmHg 86%
    08:00 +17°C° 0 mm 4 mps 743 mmHg 82%
    09:00 +17°C° 0.1 mm 5 mps 743 mmHg 79%
    10:00 +19°C° 0.1 mm 5 mps 744 mmHg 77%
    11:00 +21°C° 0.1 mm 5 mps 744 mmHg 74%
    12:00 +21°C° 0.4 mm 5 mps 744 mmHg 74%
    13:00 +21°C° 0.4 mm 5 mps 744 mmHg 75%
    14:00 +22°C° 0.4 mm 5 mps 744 mmHg 75%
    15:00 +21°C° 0.4 mm 5 mps 744 mmHg 76%
    16:00 +21°C° 0.4 mm 4 mps 744 mmHg 77%
    17:00 +21°C° 0.4 mm 4 mps 744 mmHg 79%
    18:00 +20°C° 0 mm 3 mps 744 mmHg 81%
    19:00 +18°C° 0 mm 3 mps 744 mmHg 83%
    20:00 +17°C° 0 mm 3 mps 745 mmHg 85%
    21:00 +16°C° 0 mm 3 mps 745 mmHg 85%
    22:00 +14°C° 0 mm 3 mps 745 mmHg 84%
    23:00 +14°C° 0 mm 2 mps 745 mmHg 84%

    Pasado mañana, 21 Julio, Domingo

    Tiempo Temperatura Precipitaciones Viento Presión Humedad
    00:00 +14°C° 0 mm 2 mps 745 mmHg 85%
    01:00 +13°C° 0 mm 2 mps 745 mmHg 86%
    02:00 +13°C° 0 mm 2 mps 745 mmHg 87%
    03:00 +13°C° 0 mm 2 mps 745 mmHg 88%
    04:00 +13°C° 0 mm 2 mps 745 mmHg 88%
    05:00 +13°C° 0 mm 2 mps 746 mmHg 88%
    06:00 +15°C° 0 mm 2 mps 746 mmHg 84%
    07:00 +17°C° 0 mm 2 mps 746 mmHg 79%
    08:00 +19°C° 0 mm 2 mps 746 mmHg 75%
    09:00 +20°C° 0 mm 2 mps 746 mmHg 72%
    10:00 +21°C° 0 mm 2 mps 746 mmHg 68%
    11:00 +24°C° 0 mm 2 mps 746 mmHg 65%
    12:00 +24°C° 0 mm 2 mps 746 mmHg 63%
    13:00 +25°C° 0 mm 3 mps 746 mmHg 62%
    14:00 +25°C° 0 mm 3 mps 746 mmHg 61%
    15:00 +25°C° 0 mm 3 mps 746 mmHg 64%
    16:00 +25°C° 0 mm 2 mps 746 mmHg 66%
    17:00 +24°C° 0 mm 2 mps 746 mmHg 69%
    18:00 +23°C° 0 mm 2 mps 745 mmHg 74%
    19:00 +21°C° 0 mm 1 mps 745 mmHg 79%
    20:00 +19°C° 0 mm 1 mps 745 mmHg 84%
    21:00 +16°C° 0 mm 0 mps 745 mmHg 84%
    22:00 +16°C° 0 mm 0 mps 745 mmHg 84%
    23:00 +15°C° 0 mm 0 mps 745 mmHg 85%

    22 Julio, Lunes

    Tiempo Temperatura Precipitaciones Viento Presión Humedad
    00:00 +15°C° 0 mm 0 mps 745 mmHg 86%
    01:00 +16°C° 0 mm 1 mps 745 mmHg 87%
    02:00 +15°C° 0 mm 1 mps 745 mmHg 88%
    03:00 +15°C° 0 mm 1 mps 745 mmHg 88%
    04:00 +16°C° 0 mm 1 mps 745 mmHg 88%
    05:00 +16°C° 0 mm 1 mps 744 mmHg 89%
    06:00 +17°C° 0 mm 2 mps 744 mmHg 85%
    07:00 +19°C° 0 mm 2 mps 744 mmHg 82%
    08:00 +20°C° 0 mm 2 mps 744 mmHg 79%
    09:00 +21°C° 0.5 mm 3 mps 744 mmHg 78%
    10:00 +22°C° 0.5 mm 3 mps 743 mmHg 76%
    11:00 +24°C° 0.5 mm 3 mps 743 mmHg 75%
    12:00 +24°C° 1.2 mm 3 mps 743 mmHg 76%
    13:00 +24°C° 1.2 mm 3 mps 743 mmHg 77%
    14:00 +24°C° 1.2 mm 3 mps 743 mmHg 77%
    15:00 +22°C° 0.6 mm 3 mps 742 mmHg 82%
    16:00 +20°C° 0.6 mm 3 mps 742 mmHg 86%
    17:00 +19°C° 0.6 mm 3 mps 742 mmHg 91%
    18:00 +19°C° 0.4 mm 2 mps 742 mmHg 93%
    19:00 +18°C° 0.4 mm 2 mps 742 mmHg 94%
    20:00 +17°C° 0.4 mm 2 mps 742 mmHg 96%
    21:00 +17°C° 0.6 mm 2 mps 742 mmHg 97%
    22:00 +17°C° 0.6 mm 2 mps 742 mmHg 97%
    23:00 +17°C° 0.6 mm 2 mps 741 mmHg 97%

    23 Julio, Martes

    Tiempo Temperatura Precipitaciones Viento Presión Humedad
    00:00 +17°C° 0.7 mm 2 mps 741 mmHg 98%
    01:00 +17°C° 0.7 mm 2 mps 741 mmHg 98%
    02:00 +17°C° 0.7 mm 2 mps 741 mmHg 98%
    03:00 +17°C° 1.6 mm 3 mps 741 mmHg 98%
    04:00 +17°C° 1.6 mm 3 mps 741 mmHg 98%
    05:00 +17°C° 1.6 mm 3 mps 741 mmHg 98%
    06:00 +15°C° 1.2 mm 4 mps 741 mmHg 98%
    07:00 +15°C° 1.2 mm 4 mps 741 mmHg 97%
    08:00 +14°C° 1.2 mm 5 mps 741 mmHg 97%
    09:00 +14°C° 0.5 mm 5 mps 742 mmHg 96%
    10:00 +15°C° 0.5 mm 5 mps 742 mmHg 95%
    11:00 +15°C° 0.5 mm 5 mps 742 mmHg 95%
    12:00 +15°C° 0.1 mm 5 mps 742 mmHg 95%
    13:00 +15°C° 0.1 mm 4 mps 743 mmHg 95%
    14:00 +17°C° 0.1 mm 4 mps 743 mmHg 95%
    15:00 +17°C° 0 mm 4 mps 743 mmHg 94%
    16:00 +17°C° 0 mm 4 mps 743 mmHg 93%
    17:00 +17°C° 0 mm 4 mps 743 mmHg 92%
    18:00 +17°C° 0.2 mm 4 mps 743 mmHg 91%
    19:00 +17°C° 0.2 mm 4 mps 743 mmHg 90%
    20:00 +17°C° 0.2 mm 4 mps 743 mmHg 89%
    21:00 +15°C° 0.2 mm 4 mps 743 mmHg 90%
    22:00 +15°C° 0.2 mm 4 mps 743 mmHg 92%
    23:00 +14°C° 0.2 mm 3 mps 743 mmHg 93%

    24 Julio, Miércoles

    Tiempo Temperatura Precipitaciones Viento Presión Humedad
    00:00 +14°C° 0 mm 4 mps 743 mmHg 93%
    01:00 +13°C° 0 mm 4 mps 743 mmHg 93%
    02:00 +13°C° 0 mm 4 mps 743 mmHg 93%
    03:00 +13°C° 0 mm 4 mps 743 mmHg 93%
    04:00 +13°C° 0 mm 4 mps 743 mmHg 93%
    05:00 +13°C° 0 mm 4 mps 743 mmHg 93%
    06:00 +14°C° 0 mm 5 mps 743 mmHg 89%
    07:00 +15°C° 0 mm 5 mps 743 mmHg 85%
    08:00 +16°C° 0 mm 5 mps 743 mmHg 81%
    09:00 +17°C° 0 mm 6 mps 743 mmHg 75%
    10:00 +19°C° 0 mm 6 mps 744 mmHg 69%
    11:00 +20°C° 0 mm 6 mps 744 mmHg 64%
    12:00 +21°C° 0 mm 6 mps 744 mmHg 63%
    13:00 +21°C° 0 mm 6 mps 744 mmHg 63%
    14:00 +21°C° 0 mm 6 mps 744 mmHg 62%
    15:00 +21°C° 0 mm 5 mps 744 mmHg 66%
    16:00 +21°C° 0 mm 4 mps 743 mmHg 70%
    17:00 +21°C° 0 mm 3 mps 743 mmHg 73%
    18:00 +20°C° 0.1 mm 3 mps 743 mmHg 75%
    19:00 +19°C° 0.1 mm 3 mps 743 mmHg 77%
    20:00 +17°C° 0.1 mm 4 mps 743 mmHg 80%
    21:00 +15°C° 0 mm 4 mps 743 mmHg 80%
    22:00 +15°C° 0 mm 4 mps 743 mmHg 81%
    23:00 +14°C° 0 mm 4 mps 742 mmHg 81%
    Mostrar más